Zurück zum Katalog

QIANFAN-92

AktivKommunikationPO
NORAD 66034·PAYLOAD·🇨🇳 China

Gestartet Oct 17, 2025 von Taiyuan Satellite Launch Center

Loading…

Nächste Überflüge (nächste 24 Stunden)

TLE

AktuellSource: Space-Track

Epoche: Sep 14, 2026, 07:30 UTC

1 66034U 25233B   26257.31269255  .00000067  00000-0  84486-4 0  9996
2 66034  89.0029  34.1336 0001959  99.4697 260.6676 13.50998626 45211

Verfolge QIANFAN-92 in Echtzeit mit AllMySat

Download on the App Store